Tracking 25648 objects as of 16-May-2022
HD Live streaming from Space Station
objects crossing your sky now

FALCON 9 R/B

Track FALCON 9 R/B now!
10-day predictions


NORAD ID: 43612
Int'l Code: 2018-069B
Perigee: 290.3 km
Apogee: 17,498.0 km
Inclination: 27.1 °
Period: 312.8 minutes
Semi major axis: 15265 km
RCS: Unknown
Launch date: September 10, 2018
Source: United States (US)
Launch site: AIR FORCE EASTERN TEST RANGE (AFETR)

Note: This is a ROCKET BODY
aabbcc
Your satellite tracking list
Your tracking list is empty




NASA's NSSDC Master Catalog

Two Line Element Set (TLE):
1 43612U 18069B   22136.37400361  .00007227  00000-0  11762-2 0  9995
2 43612  27.0714 138.7398 5636261   1.6954 359.6087  4.60310429 61130
Source of the keplerian elements: AFSPC